Weather History for KLFI - September, 2013

Change the Weather History Date:

Monday, September 23, 2013

  Actual Average Record
Temperature  
Mean Temperature 59 °F -  
Max Temperature 67 °F 74 °F 95 °F (1980)
Min Temperature 51 °F 58 °F 45 °F (1967)
Degree Days  
Heating Degree Days 6    
Growing Degree Days 9 (Base 50)    
Moisture  
Dew Point 50 °F    
Average Humidity 66    
Maximum Humidity 99    
Minimum Humidity 54    
Precipitation  
Precipitation 0.00 in - - ()
Sea Level Pressure  
Sea Level Pressure 30.04 in    
Wind  
Wind Speed 11 mph (NNE)    
Max Wind Speed 16 mph    
Max Gust Speed 22 mph    
Visibility 10 miles    
Events Rain    
Averages and records for this station are not official NWS values.
T = Trace of Precipitation, MM = Missing Value Source: NWS Daily Summary

Daily Weather History Graph

Daily Weather History Graph

Search for Another Location

Airport or City:

Trip Planner

Search our weather history database for the weather conditions in past years. The results will help you decide how hot, cold, wet, or windy it might be!

Date:

Astronomy

Sep. 23, 2013 Rise Set
Actual Time 6:54 AM EDT 7:00 PM EDT
Civil Twilight 6:28 AM EDT 7:26 PM EDT
Nautical Twilight 5:58 AM EDT 7:56 PM EDT
Astronomical Twilight 5:27 AM EDT 8:27 PM EDT
Moon 9:37 PM EDT (9/23) 11:04 AM EDT (9/23)
Length of Visible Light 12h 58m
Length of Day
12h 06m
Waning Gibbous, 81% of the Moon is Illuminated
Sep 23
Waning Gibbous
Sep 26
Last Quarter
Oct 4
New
Oct 11
First Quarter
Oct 18
Full

Hourly Weather History & Observations

Time (EDT) Temp. Dew Point Humidity Pressure Visibility Wind Dir Wind Speed Gust Speed Precip Events Conditions
12:58 AM 66.4 °F 55.8 °F 69% 29.93 in 10.0 mi NE 10.4 mph - N/A   Mostly Cloudy
1:58 AM 65.5 °F 51.4 °F 60% 29.94 in 10.0 mi NNE 10.4 mph - N/A   Scattered Clouds
2:58 AM 64.9 °F 50.7 °F 60% 29.94 in 10.0 mi NNE 10.4 mph - N/A   Mostly Cloudy
3:58 AM 63.9 °F 49.3 °F 59% 29.95 in 10.0 mi North 6.9 mph - N/A   Mostly Cloudy
4:58 AM 63.1 °F 50.2 °F 63% 29.96 in 10.0 mi NNE 11.5 mph - N/A   Mostly Cloudy
5:58 AM 62.1 °F 48.9 °F 62% 29.98 in 10.0 mi NNE 11.5 mph - N/A   Partly Cloudy
6:58 AM 61.5 °F 49.3 °F 64% 30.01 in 10.0 mi NNE 15.0 mph - N/A   Mostly Cloudy
7:13 AM 60.8 °F 51.8 °F 72% 30.00 in 10.0 mi NE 10.4 mph - N/A   Mostly Cloudy
7:23 AM 60.8 °F 51.8 °F 72% 30.00 in 10.0 mi NE 13.8 mph - N/A   Mostly Cloudy
7:31 AM 60.8 °F 51.8 °F 72% 30.01 in 10.0 mi NE 12.7 mph 19.6 mph N/A   Mostly Cloudy
7:35 AM 60.8 °F 51.8 °F 72% 30.01 in 10.0 mi NNE 12.7 mph 19.6 mph N/A   Mostly Cloudy
7:38 AM 60.8 °F 50.0 °F 68% 30.01 in 10.0 mi NNE 12.7 mph - N/A Rain Light Rain
7:40 AM 60.8 °F 50.0 °F 68% 30.01 in 10.0 mi NNE 12.7 mph - N/A   Mostly Cloudy
7:58 AM 61.3 °F 50.2 °F 67% 30.03 in 10.0 mi NNE 15.0 mph - 0.00 in   Mostly Cloudy
8:18 AM 60.8 °F 50.0 °F 68% 30.02 in 10.0 mi NNE 16.1 mph 20.7 mph N/A   Mostly Cloudy
8:26 AM 62.6 °F 48.2 °F 59% 30.02 in 10.0 mi NNE 12.7 mph 21.9 mph N/A   Mostly Cloudy
8:58 AM 61.9 °F 49.5 °F 64% 30.06 in 10.0 mi NNE 10.4 mph - 0.00 in   Mostly Cloudy
9:33 AM 62.6 °F 50.0 °F 63% 30.05 in 10.0 mi NNE 13.8 mph 18.4 mph N/A   Mostly Cloudy
9:38 AM 62.6 °F 50.0 °F 63% 30.05 in 10.0 mi NNE 10.4 mph 18.4 mph N/A   Mostly Cloudy
9:43 AM 62.6 °F 50.0 °F 63% 30.05 in 10.0 mi NNE 15.0 mph - N/A   Mostly Cloudy
9:53 AM 62.6 °F 50.0 °F 63% 30.06 in 10.0 mi NNE 12.7 mph 20.7 mph N/A   Mostly Cloudy
9:58 AM 62.2 °F 49.1 °F 62% 30.08 in 10.0 mi NNE 11.5 mph 20.7 mph N/A   Mostly Cloudy
10:03 AM 62.6 °F 48.2 °F 59% 30.06 in 10.0 mi NNE 8.1 mph - N/A   Scattered Clouds
10:28 AM 62.6 °F 50.0 °F 63% 30.06 in 10.0 mi NNE 13.8 mph - N/A   Mostly Cloudy
10:33 AM 62.6 °F 50.0 °F 63% 30.06 in 10.0 mi NNE 10.4 mph 18.4 mph N/A   Mostly Cloudy
10:53 AM 62.6 °F 50.0 °F 63% 30.07 in 10.0 mi North 10.4 mph 19.6 mph N/A   Overcast
10:58 AM 61.9 °F 48.9 °F 62% 30.09 in 10.0 mi NNE 9.2 mph - N/A   Overcast
11:58 AM 63.7 °F 48.4 °F 57% 30.09 in 10.0 mi NNE 13.8 mph 19.6 mph N/A   Overcast
12:58 PM 64.9 °F 48.2 °F 55% 30.07 in 10.0 mi NNE 11.5 mph 18.4 mph N/A   Mostly Cloudy
1:58 PM 65.5 °F 49.1 °F 55% 30.07 in 10.0 mi NNE 9.2 mph - N/A   Mostly Cloudy
2:58 PM 66.7 °F 49.6 °F 54% 30.05 in 10.0 mi NE 11.5 mph - N/A   Mostly Cloudy
3:58 PM 65.8 °F 50.2 °F 57% 30.05 in 10.0 mi ENE 6.9 mph - N/A   Mostly Cloudy
4:58 PM 65.7 °F 50.0 °F 57% 30.06 in 10.0 mi NNE 4.6 mph - N/A   Overcast
5:58 PM 66.0 °F 50.0 °F 56% 30.05 in 10.0 mi ENE 8.1 mph - N/A   Mostly Cloudy
6:58 PM 60.6 °F 53.1 °F 76% 30.07 in 10.0 mi WNW 2.3 mph - N/A   Clear
7:58 PM 57.4 °F 50.7 °F 78% 30.08 in 10.0 mi North 4.6 mph - N/A   Clear
8:58 PM 58.3 °F 49.1 °F 71% 30.08 in 10.0 mi North 3.5 mph - N/A   Clear
9:58 PM 52.9 °F 51.3 °F 94% 30.10 in 10.0 mi WNW 2.3 mph - N/A   Clear
10:58 PM 53.2 °F 52.0 °F 95% 30.11 in 10.0 mi NW 2.3 mph - N/A   Clear
11:58 PM 51.8 °F 51.6 °F 99% 30.10 in 10.0 mi West 2.3 mph - N/A   Clear